| time (UTC) | temp F | wind direction | speed MPH | gust MPH | rain 1hr in | rain 24hr in | rain mn in | humidity % | barometer mb |
| 20260904183719 | 76 | 207 | 2.0 | 2.0 | 0.01 | 0.68 | 0.12 | 91 | 1014.9 |
| 20260904182719 | 75 | 190 | 1.0 | 2.0 | 0.01 | 0.68 | 0.12 | 94 | 1015.2 |
| 20260904181720 | 75 | 157 | 2.0 | 3.0 | 0.01 | 0.68 | 0.12 | 94 | 1015.2 |
| 20260904175720 | 74 | 155 | 3.0 | 4.0 | 0.02 | 0.68 | 0.12 | 98 | 1015.9 |
| 20260904174720 | 73 | 0.0 | 0.0 | 0.02 | 0.68 | 0.12 | 99 | 1016.2 | |
| 20260904173720 | 73 | 281 | 0.0 | 2.0 | 0.02 | 0.67 | 0.11 | 99 | 1016.5 |
| 20260904172719 | 73 | 0.0 | 0.0 | 0.03 | 0.67 | 0.11 | 98 | 1016.2 | |
| 20260904171720 | 73 | 357 | 3.0 | 4.0 | 0.03 | 0.67 | 0.11 | 99 | 1016.2 |
| 20260904170720 | 73 | 327 | 4.0 | 4.0 | 0.03 | 0.67 | 0.11 | 99 | 1016.5 |
| 20260904165720 | 73 | 309 | 4.0 | 5.0 | 0.02 | 0.66 | 0.10 | 99 | 1016.5 |
| 20260904164740 | 73 | 293 | 4.0 | 5.0 | 0.04 | 0.66 | 0.10 | 98 | 1016.9 |
| 20260904163720 | 73 | 284 | 2.0 | 2.0 | 0.05 | 0.65 | 0.09 | 99 | 1016.9 |
| 20260904162719 | 73 | 285 | 4.0 | 4.0 | 0.08 | 0.64 | 0.08 | 99 | 1016.9 |
| 20260904161719 | 74 | 0.0 | 0.0 | 0.08 | 0.64 | 0.08 | 99 | 1016.9 | |
| 20260904160719 | 74 | 0.0 | 0.0 | 0.08 | 0.64 | 0.08 | 97 | 1016.6 | |
| 20260904155720 | 73 | 0.0 | 0.0 | 0.08 | 0.64 | 0.08 | 98 | 1016.5 | |
| 20260904154740 | 73 | 0.0 | 0.0 | 0.06 | 0.62 | 0.06 | 99 | 1016.5 | |
| 20260904153721 | 73 | 0.0 | 0.0 | 0.03 | 0.59 | 0.03 | 99 | 1016.5 | |
| 20260904152720 | 73 | 0.0 | 0.0 | 0.00 | 0.56 | 0.00 | 98 | 1016.9 | |
| 20260904151720 | 74 | 0.0 | 0.0 | 0.00 | 0.56 | 0.00 | 97 | 1016.9 | |
| 20260904150721 | 73 | 0.0 | 0.0 | 0.00 | 0.56 | 0.00 | 97 | 1016.9 | |
| 20260904145721 | 72 | 0.0 | 0.0 | 0.00 | 0.56 | 0.00 | 99 | 1016.9 | |
| 20260904144721 | 72 | 0.0 | 0.0 | 0.00 | 0.56 | 0.00 | 99 | 1016.9 | |
| 20260904143721 | 72 | 0.0 | 0.0 | 0.00 | 0.56 | 0.00 | 99 | 1017.5 | |
| 20260904142721 | 72 | 0.0 | 0.0 | 0.00 | 0.56 | 0.00 | 99 | 1016.9 | |
| 20260904141721 | 72 | 0.0 | 0.0 | 0.00 | 0.56 | 0.00 | 99 | 1016.5 | |
| 20260904140721 | 72 | 0.0 | 0.0 | 0.00 | 0.56 | 0.00 | 99 | 1016.2 | |
| 20260904135721 | 72 | 0.0 | 0.0 | 0.00 | 0.56 | 0.00 | 99 | 1016.2 | |
| 20260904134741 | 72 | 0.0 | 0.0 | 0.00 | 0.56 | 0.00 | 99 | 1015.9 | |
| 20260904133721 | 72 | 0.0 | 0.0 | 0.00 | 0.56 | 0.00 | 99 | 1015.5 | |
| 20260904132721 | 72 | 0.0 | 0.0 | 0.00 | 0.56 | 0.00 | 99 | 1015.9 | |
| 20260904131721 | 72 | 0.0 | 0.0 | 0.00 | 0.56 | 0.00 | 99 | 1016.2 | |
| 20260904130720 | 71 | 0.0 | 0.0 | 0.00 | 0.56 | 0.00 | 99 | 1016.2 | |
| 20260904125741 | 71 | 0.0 | 0.0 | 0.00 | 0.56 | 0.00 | 99 | 1016.1 | |
| 20260904124721 | 70 | 0.0 | 0.0 | 0.00 | 0.56 | 0.00 | 99 | 1016.1 | |
| 20260904123720 | 70 | 0.0 | 0.0 | 0.00 | 0.56 | 0.00 | 99 | 1016.1 | |
| 20260904122740 | 70 | 0.0 | 0.0 | 0.00 | 0.56 | 0.00 | 99 | 1016.1 | |
| 20260904121720 | 69 | 0.0 | 0.0 | 0.00 | 0.56 | 0.00 | 99 | 1016.1 | |
| 20260904120720 | 69 | 0.0 | 0.0 | 0.00 | 0.56 | 0.00 | 99 | 1015.7 | |
| 20260904115720 | 69 | 0.0 | 0.0 | 0.00 | 0.56 | 0.00 | 99 | 1015.7 | |
| 20260904114741 | 69 | 0.0 | 0.0 | 0.00 | 0.56 | 0.00 | 99 | 1016.0 | |
| 20260904113720 | 69 | 0.0 | 0.0 | 0.00 | 0.56 | 0.00 | 99 | 1015.7 | |
| 20260904112720 | 68 | 0.0 | 0.0 | 0.00 | 0.56 | 0.00 | 99 | 1016.0 | |
| 20260904111720 | 68 | 0.0 | 0.0 | 0.00 | 0.56 | 0.00 | 99 | 1015.7 | |
| 20260904110720 | 68 | 0.0 | 0.0 | 0.00 | 0.56 | 0.00 | 99 | 1015.7 | |
| 20260904105720 | 68 | 0.0 | 0.0 | 0.00 | 0.56 | 0.00 | 99 | 1015.4 | |
| 20260904104741 | 67 | 0.0 | 0.0 | 0.00 | 0.56 | 0.00 | 99 | 1015.0 | |
| 20260904103720 | 67 | 0.0 | 0.0 | 0.00 | 0.56 | 0.00 | 99 | 1015.0 | |
| 20260904102720 | 68 | 0.0 | 0.0 | 0.00 | 0.56 | 0.00 | 99 | 1015.2 | |
| 20260904101720 | 67 | 0.0 | 0.0 | 0.00 | 0.56 | 0.00 | 99 | 1015.1 | |
| 20260904100720 | 68 | 0.0 | 0.0 | 0.00 | 0.56 | 0.00 | 99 | 1015.2 | |
| 20260904095720 | 68 | 0.0 | 0.0 | 0.00 | 0.56 | 0.00 | 99 | 1015.5 | |
| 20260904094740 | 68 | 0.0 | 0.0 | 0.00 | 0.56 | 0.00 | 99 | 1015.5 | |
| 20260904093720 | 68 | 0.0 | 0.0 | 0.00 | 0.56 | 0.00 | 99 | 1015.5 | |
| 20260904092740 | 68 | 0.0 | 0.0 | 0.00 | 0.56 | 0.00 | 99 | 1015.5 | |
| 20260904091721 | 69 | 0.0 | 0.0 | 0.00 | 0.56 | 0.00 | 99 | 1015.5 | |
| 20260904090720 | 69 | 0.0 | 0.0 | 0.00 | 0.56 | 0.00 | 99 | 1015.2 | |
| 20260904085740 | 69 | 0.0 | 0.0 | 0.00 | 0.56 | 0.00 | 99 | 1015.6 | |
| 20260904084720 | 69 | 0.0 | 0.0 | 0.00 | 0.56 | 0.00 | 99 | 1015.3 | |
| 20260904083740 | 69 | 0.0 | 0.0 | 0.00 | 0.56 | 0.00 | 99 | 1015.3 | |
| 20260904082720 | 69 | 0.0 | 0.0 | 0.00 | 0.56 | 0.00 | 99 | 1015.7 | |
| 20260904081721 | 69 | 0.0 | 0.0 | 0.00 | 0.56 | 0.00 | 99 | 1015.7 | |
| 20260904080720 | 69 | 0.0 | 0.0 | 0.00 | 0.56 | 0.00 | 99 | 1015.7 | |
| 20260904075720 | 69 | 0.0 | 0.0 | 0.00 | 0.56 | 0.00 | 99 | 1015.7 | |
| 20260904074720 | 69 | 0.0 | 0.0 | 0.00 | 0.56 | 0.00 | 99 | 1015.7 | |
| 20260904073720 | 69 | 0.0 | 0.0 | 0.00 | 0.56 | 0.00 | 99 | 1015.7 | |
| 20260904072720 | 69 | 0.0 | 0.0 | 0.00 | 0.56 | 0.00 | 99 | 1015.8 | |
| 20260904071720 | 69 | 0.0 | 0.0 | 0.00 | 0.56 | 0.00 | 99 | 1015.8 | |
| 20260904070740 | 69 | 0.0 | 0.0 | 0.00 | 0.56 | 0.00 | 99 | 1015.8 | |
| 20260904065741 | 69 | 0.0 | 0.0 | 0.00 | 0.56 | 0.00 | 99 | 1016.1 | |
| 20260904064720 | 69 | 0.0 | 0.0 | 0.00 | 0.56 | 0.00 | 99 | 1016.1 | |
| 20260904063720 | 69 | 0.0 | 0.0 | 0.00 | 0.56 | 0.00 | 99 | 1016.1 | |
| 20260904062742 | 69 | 0.0 | 0.0 | 0.00 | 0.56 | 0.00 | 99 | 1016.1 | |
| 20260904061740 | 68 | 0.0 | 0.0 | 0.00 | 0.56 | 0.00 | 99 | 1016.4 | |
| 20260904060720 | 69 | 0.0 | 0.0 | 0.00 | 0.56 | 0.00 | 99 | 1016.1 | |
| 20260904055740 | 69 | 0.0 | 0.0 | 0.00 | 0.56 | 0.00 | 99 | 1016.1 | |
| 20260904054720 | 69 | 0.0 | 0.0 | 0.00 | 0.56 | 0.00 | 99 | 1015.8 | |
| 20260904053721 | 69 | 0.0 | 0.0 | 0.00 | 0.72 | 0.00 | 99 | 1015.8 | |
| 20260904052720 | 69 | 0.0 | 0.0 | 0.00 | 0.75 | 0.00 | 99 | 1015.4 | |
| 20260904051741 | 69 | 0.0 | 0.0 | 0.00 | 0.75 | 0.00 | 99 | 1015.4 | |
| 20260904050740 | 69 | 0.0 | 0.0 | 0.00 | 0.75 | 0.00 | 99 | 1016.1 | |
| 20260904045720 | 69 | 0.0 | 0.0 | 0.00 | 0.75 | 0.00 | 99 | 1015.8 | |
| 20260904044801 | 69 | 0.0 | 0.0 | 0.00 | 0.75 | 0.00 | 99 | 1016.1 | |
| 20260904043741 | 69 | 0.0 | 0.0 | 0.00 | 0.75 | 0.00 | 99 | 1015.8 | |
| 20260904042720 | 69 | 0.0 | 0.0 | 0.00 | 0.75 | 0.00 | 99 | 1015.7 | |
| 20260904041720 | 70 | 0.0 | 0.0 | 0.00 | 0.75 | 0.00 | 99 | 1015.4 | |
| 20260904040720 | 70 | 0.0 | 0.0 | 0.00 | 0.75 | 0.00 | 99 | 1015.4 | |
| 20260904035719 | 70 | 0.0 | 0.0 | 0.00 | 0.75 | 0.75 | 99 | 1015.4 | |
| 20260904034739 | 70 | 0.0 | 0.0 | 0.00 | 0.75 | 0.75 | 99 | 1015.4 | |
| 20260904033719 | 70 | 0.0 | 0.0 | 0.00 | 0.75 | 0.75 | 99 | 1015.4 | |
| 20260904032719 | 70 | 0.0 | 0.0 | 0.00 | 0.75 | 0.75 | 99 | 1015.3 | |
| 20260904031719 | 70 | 0.0 | 0.0 | 0.00 | 0.75 | 0.75 | 99 | 1015.3 | |
| 20260904030719 | 70 | 0.0 | 0.0 | 0.00 | 0.75 | 0.75 | 99 | 1015.3 | |
| 20260904025719 | 70 | 0.0 | 0.0 | 0.00 | 0.75 | 0.75 | 99 | 1014.9 | |
| 20260904024719 | 70 | 0.0 | 0.0 | 0.00 | 0.75 | 0.75 | 99 | 1014.9 | |
| 20260904023719 | 70 | 0.0 | 0.0 | 0.00 | 0.75 | 0.75 | 99 | 1014.9 | |
| 20260904022719 | 70 | 0.0 | 0.0 | 0.00 | 0.75 | 0.75 | 99 | 1014.6 | |
| 20260904021721 | 70 | 0.0 | 0.0 | 0.00 | 0.75 | 0.75 | 99 | 1014.9 | |
| 20260904020719 | 70 | 0.0 | 0.0 | 0.00 | 0.75 | 0.75 | 99 | 1015.3 | |
| 20260904015719 | 70 | 0.0 | 0.0 | 0.00 | 0.75 | 0.75 | 99 | ||
| 20260904014719 | 70 | 358 | 2.0 | 4.0 | 0.00 | 0.75 | 0.75 | 99 | |
| 20260904013719 | 70 | 0.0 | 0.0 | 0.00 | 0.75 | 0.75 | 99 | ||
| 20260904012739 | 71 | 0.0 | 0.0 | 0.00 | 0.75 | 0.75 | 99 | ||
| 20260904011719 | 71 | 0.0 | 0.0 | 0.00 | 0.75 | 0.75 | 99 | ||
| 20260904010720 | 71 | 133 | 3.0 | 4.0 | 0.01 | 0.75 | 0.75 | 99 | |
| 20260904005800 | 71 | 126 | 1.0 | 3.0 | 0.02 | 0.75 | 0.75 | 99 | |
| 20260904004719 | 71 | 123 | 3.0 | 4.0 | 0.05 | 0.75 | 0.75 | 99 | |
| 20260904003719 | 71 | 170 | 5.0 | 7.0 | 0.09 | 0.75 | 0.75 | 99 | |
| 20260904002719 | 70 | 152 | 5.0 | 7.0 | 0.13 | 0.75 | 0.75 | 99 | |
| 20260904001719 | 70 | 133 | 5.0 | 7.0 | 0.17 | 0.75 | 0.75 | 99 | |
| 20260904000719 | 70 | 136 | 3.0 | 5.0 | 0.19 | 0.74 | 0.74 | 99 | |
| 20260903235719 | 70 | 0.0 | 0.0 | 0.20 | 0.73 | 0.73 | 99 | ||
| 20260903234719 | 70 | 0.0 | 0.0 | 0.21 | 0.69 | 0.69 | 99 | ||
| 20260903233719 | 71 | 0.0 | 0.0 | 0.33 | 0.66 | 0.66 | 99 | ||
| 20260903232719 | 71 | 174 | 2.0 | 2.0 | 0.34 | 0.62 | 0.62 | 99 | |
| 20260903231720 | 71 | 292 | 3.0 | 4.0 | 0.32 | 0.58 | 0.58 | 99 | |
| 20260903230719 | 71 | 2 | 5.0 | 7.0 | 0.29 | 0.55 | 0.55 | 99 | |
| 20260903225739 | 71 | 355 | 6.0 | 9.0 | 0.26 | 0.53 | 0.53 | 99 | |
| 20260903224719 | 71 | 356 | 7.0 | 12.0 | 0.22 | 0.48 | 0.48 | 99 | |
| 20260903223719 | 71 | 304 | 17.0 | 20.0 | 0.07 | 0.33 | 0.33 | 98 | |
| 20260903222719 | 73 | 324 | 8.0 | 9.0 | 0.01 | 0.27 | 0.27 | 93 | |
| 20260903221719 | 76 | 356 | 9.0 | 13.0 | 0.00 | 0.26 | 0.26 | 99 | |
| 20260903220720 | 76 | 23 | 2.0 | 4.0 | 0.00 | 0.26 | 0.26 | 99 | |
| 20260903215719 | 76 | 0.0 | 0.0 | 0.00 | 0.26 | 0.26 | 99 | ||
| 20260903214719 | 76 | 0.0 | 0.0 | 0.00 | 0.26 | 0.26 | 99 | ||
| 20260903213739 | 77 | 0.0 | 0.0 | 0.00 | 0.26 | 0.26 | 97 | ||
| 20260903212719 | 77 | 0.0 | 0.0 | 0.04 | 0.26 | 0.26 | 97 | ||
| 20260903211719 | 77 | 356 | 1.0 | 2.0 | 0.08 | 0.26 | 0.26 | 97 | |
| 20260903210720 | 77 | 336 | 4.0 | 6.0 | 0.08 | 0.26 | 0.26 | 98 | |
| 20260903205719 | 78 | 322 | 6.0 | 7.0 | 0.08 | 0.26 | 0.26 | 97 | |
| 20260903204740 | 78 | 326 | 4.0 | 5.0 | 0.08 | 0.26 | 0.26 | 97 | |
| 20260903203719 | 78 | 339 | 5.0 | 6.0 | 0.08 | 0.26 | 0.26 | 95 | |
| 20260903202719 | 78 | 6 | 6.0 | 8.0 | 0.03 | 0.22 | 0.22 | 96 | |
| 20260903201740 | 79 | 341 | 8.0 | 9.0 | 0.00 | 0.19 | 0.19 | 93 | |
| 20260903200720 | 80 | 320 | 6.0 | 8.0 | 0.00 | 0.19 | 0.19 | 89 | |
| 20260903195719 | 81 | 304 | 7.0 | 9.0 | 0.00 | 0.19 | 0.19 | 88 | |
| 20260903194719 | 80 | 310 | 6.0 | 7.0 | 0.00 | 0.19 | 0.19 | 89 | |
| 20260903193719 | 81 | 342 | 10.0 | 12.0 | 0.00 | 0.19 | 0.19 | 88 | |
| 20260903192719 | 81 | 349 | 11.0 | 13.0 | 0.00 | 0.19 | 0.19 | 88 | |
| 20260903191719 | 82 | 341 | 8.0 | 11.0 | 0.00 | 0.19 | 0.19 | 83 | |
| 20260903190719 | 83 | 303 | 7.0 | 9.0 | 0.00 | 0.19 | 0.19 | 84 | |
| 20260903185800 | 83 | 314 | 5.0 | 7.0 | 0.00 | 0.19 | 0.19 | 82 | |
| 20260903184740 | 82 | 306 | 9.0 | 13.0 | 0.00 | 0.19 | 0.19 | 85 |